Powrót do katalogu

STARLINK-35508

AktywnyŁącznośćVLEO
NORAD 65912·PAYLOAD·🇺🇸 United States

Wystrzelony Oct 8, 2025 z Vandenberg Space Force Base

Loading…

Następne Przeloty (najbliższe 24 godziny)

TLE

ŚwieżeSource: CelesTrak SupGP

Epoka: Sep 15, 2026, 03:51 UTC

1 65912C 25225C   26258.16090278  .00078592  00000+0  23223-2 0  2587
2 65912  53.1593   2.4046 0001387  91.9597 214.7772 15.34347386    11

Śledź STARLINK-35508 w czasie rzeczywistym z AllMySat

Download on the App Store